STARLINK-34160 (64119 NORAD) Tracking and Keplerian Element Data

This shows tracking and keplerian element data for the satellite.

Feedback or suggestion? Click here.




ElementValue
Catalog64119
NameSTARLINK-34160
Epoch Orbit3370
Epoch Day354.11770682
Epoch Year2025
RAAN36.0837
Inclination53.161
Eccentricity0.0001421
Argument of Perigee82.2687
Mean Anonmoly277.8476
Mean Motion15.30202066
Decay Rate0.00015567
L11 64119U 25110Z 25354.11770682 .00015567 00000+0 53658-3 0 9994
L22 64119 53.1610 36.0837 0001421 82.2687 277.8476 15.30202066 33706



Live tracking and technical data element details for STARLINK-34160 (NORAD 64119). STARLINK-34160 can be tracked NOW for your location showing map with azimuth and elevation plus other details from your city location.







IsCatalogInMostPopularTable: catalog: 64119, numindb: 7
Update: records affected: 1



GetName: 64119 STARLINK-34160

Hit Count: updated at: Mon, 20 Apr 2026 10:03:36 GMT